20050424,000007,809840,32.906986,-122.161502,4.4,14.885,33.057,40.671,886.73,0.0,3.143,14.092,14.058, NaN,24.499,   NaN,13.70,1011.62,86.44,14.06,37.0,43.5,6.4,5.3,334.3,344.1,5.6,4.6,NaN, NaN,12.4,244.2,263.9,1114300808,1114300808,1,2.7,000008,000008,286.1,32.906920,-122.161360,1.83,NaN,NaN,14.889, NaN,NaN,NaN, NaN, NaN
20050424,000037,809870,32.907015,-122.161873,4.3,14.881,33.057,40.668,885.27,0.0,3.181,14.089,14.056, NaN,24.500,   NaN,13.62,1011.71,86.15,14.01,35.8,42.4,6.3,5.4,331.1,340.2,5.5,4.8,NaN, NaN,12.0,240.7,286.7,1114300838,1114300838,1,1.8,000038,000038,282.5,32.906953,-122.161723,1.51,NaN,NaN,14.885, NaN,NaN,NaN, NaN, NaN
20050424,000107,809900,32.907016,-122.162235,4.4,14.887,33.052,40.668,887.31,0.0,3.124,14.086,14.053, NaN,24.494,   NaN,13.60,1011.69,86.27,13.95,39.2,45.9,6.1,5.4,331.4,340.0,5.5,4.9,NaN, NaN,11.8,263.3,273.2,1114300868,1114300868,1,2.1,000068,000068,280.6,32.906953,-122.162088,1.43,NaN,NaN,14.891, NaN,NaN,NaN, NaN, NaN
20050424,000137,809930,32.906988,-122.162598,4.3,14.879,33.058,40.667,888.87,0.0,3.237,14.087,14.051, NaN,24.501,   NaN,13.63,1011.72,86.49,13.97,42.6,48.3,5.6,5.1,334.1,341.1,5.0,4.7,NaN, NaN,13.0,312.5,265.7,1114300898,1114300898,1,2.1,000098,000098,282.9,32.906930,-122.162455,1.31,NaN,NaN,14.883, NaN,NaN,NaN, NaN, NaN
20050424,000207,809960,32.907006,-122.162953,4.4,14.877,33.059,40.667,889.23,0.0,3.105,14.087,14.050, NaN,24.502,   NaN,13.73,1011.71,86.80,14.05,43.3,47.9,5.1,4.8,337.2,342.7,4.6,4.4,NaN, NaN,10.9,243.0,262.0,1114300928,1114300928,1,2.4,000128,000128,287.0,32.906925,-122.162810,1.20,NaN,NaN,14.881, NaN,NaN,NaN, NaN, NaN
20050424,000238,809991,32.906988,-122.163263,4.4,14.876,33.059,40.665,892.44,0.0,3.105,14.085,14.049, NaN,24.502,   NaN,13.74,1011.71,86.61,14.08,42.8,47.0,5.3,4.7,339.0,344.4,4.8,4.3,NaN, NaN,12.4,266.3,263.1,1114300958,1114300958,1,1.6,000158,000158,286.3,32.906915,-122.163117,0.99,NaN,NaN,14.880, NaN,NaN,NaN, NaN, NaN
20050424,000307,810020,32.906976,-122.163522,4.3,14.871,33.061,40.663,892.15,0.0,3.162,14.087,14.051, NaN,24.505,   NaN,13.61,1011.63,86.35,13.99,43.8,50.4,5.7,4.8,338.8,347.4,5.3,4.5,NaN, NaN,12.3,291.8,295.8,1114300988,1114300988,1,1.5,000188,000188,283.6,32.906906,-122.163377,0.90,NaN,NaN,14.875, NaN,NaN,NaN, NaN, NaN
20050424,000337,810050,32.906920,-122.163765,4.4,14.871,33.059,40.661,895.33,0.0,3.294,14.087,14.053, NaN,24.504,   NaN,13.65,1011.67,86.73,13.98,45.0,54.0,5.6,4.7,336.9,347.9,5.4,4.6,NaN, NaN,11.6,306.7,235.8,1114301018,1114301018,1,2.2,000218,000218,280.6,32.906861,-122.163612,0.56,NaN,NaN,14.875, NaN,NaN,NaN, NaN, NaN
20050424,000407,810080,32.906893,-122.164027,4.4,14.870,33.059,40.660,894.96,0.0,3.237,14.085,14.051, NaN,24.504,   NaN,13.61,1011.68,86.51,13.95,44.3,52.1,5.6,4.7,333.3,342.7,5.3,4.6,NaN, NaN,12.5,256.7,250.3,1114301048,1114301048,1,1.7,000248,000248,282.1,32.906823,-122.163875,0.73,NaN,NaN,14.874, NaN,NaN,NaN, NaN, NaN
20050424,000437,810110,32.906888,-122.164320,4.4,14.867,33.060,40.658,894.01,0.0,3.237,14.087,14.053, NaN,24.505,   NaN,13.61,1011.64,86.54,13.95,39.7,47.2,5.6,4.8,330.0,338.9,5.2,4.6,NaN, NaN,13.3,229.8,268.2,1114301078,1114301078,1,2.0,000278,000278,285.6,32.906811,-122.164180,1.17,NaN,NaN,14.871, NaN,NaN,NaN, NaN, NaN
20050424,000507,810140,32.906860,-122.164652,4.1,14.869,33.054,40.653,890.10,0.0,3.332,14.087,14.052, NaN,24.501,   NaN,13.63,1011.62,86.56,13.96,39.6,47.3,5.8,4.9,334.0,343.6,5.4,4.7,NaN, NaN,12.0,282.9,273.2,1114301108,1114301108,1,2.0,000308,000308,288.6,32.906791,-122.164508,1.28,NaN,NaN,14.873, NaN,NaN,NaN, NaN, NaN
20050424,000538,810171,32.906865,-122.164978,4.3,14.869,33.056,40.655,886.30,0.0,3.351,14.085,14.051, NaN,24.502,   NaN,13.58,1011.65,86.29,13.93,42.7,50.8,6.0,5.2,339.4,349.3,5.6,5.0,NaN, NaN,12.8,300.2,293.6,1114301138,1114301138,1,1.6,000338,000338,287.8,32.906786,-122.164830,1.00,NaN,NaN,14.873, NaN,NaN,NaN, NaN, NaN
20050424,000607,810200,32.906846,-122.165285,4.3,14.871,33.052,40.652,880.07,0.0,3.426,14.087,14.051, NaN,24.498,   NaN,13.61,1011.64,86.42,13.92,43.6,51.9,5.9,5.0,340.5,350.9,5.6,4.8,NaN, NaN,11.9,260.4,261.6,1114301168,1114301168,1,2.2,000368,000368,287.3,32.906766,-122.165137,1.01,NaN,NaN,14.875, NaN,NaN,NaN, NaN, NaN
20050424,000637,810230,32.906833,-122.165577,4.3,14.868,33.054,40.652,872.59,0.0,3.407,14.085,14.049, NaN,24.500,   NaN,13.61,1011.67,86.32,13.91,43.6,51.8,5.6,4.7,339.8,350.1,5.2,4.5,NaN, NaN,12.5,256.4,261.5,1114301198,1114301198,1,1.7,000398,000398,287.0,32.906746,-122.165425,0.94,NaN,NaN,14.872, NaN,NaN,NaN, NaN, NaN
20050424,000707,810260,32.906810,-122.165898,4.3,14.872,33.049,40.650,867.42,0.0,3.445,14.085,14.049, NaN,24.496,   NaN,13.70,1011.68,86.61,14.00,46.5,52.4,5.2,4.4,343.6,351.6,4.9,4.2,NaN, NaN,13.1,280.1,265.3,1114301228,1114301228,1,2.1,000428,000428,285.0,32.906740,-122.165747,1.21,NaN,NaN,14.876, NaN,NaN,NaN, NaN, NaN
20050424,000737,810290,32.906813,-122.166263,4.3,14.867,33.053,40.650,862.80,0.0,3.483,14.085,14.049, NaN,24.500,   NaN,13.70,1011.62,86.44,14.04,47.8,52.2,5.1,4.5,344.5,350.6,4.7,4.2,NaN, NaN,13.3,291.0,268.7,1114301258,1114301258,1,2.4,000458,000458,282.5,32.906731,-122.166110,1.46,NaN,NaN,14.871, NaN,NaN,NaN, NaN, NaN
20050424,000807,810320,32.906801,-122.166630,4.3,14.866,33.054,40.650,858.64,0.0,3.464,14.083,14.047, NaN,24.501,   NaN,13.64,1011.68,86.34,14.01,48.1,53.8,5.2,4.7,343.2,350.8,4.8,4.4,NaN, NaN,12.3,251.4,266.6,1114301288,1114301288,1,2.3,000488,000488,282.3,32.906723,-122.166480,1.36,NaN,NaN,14.870, NaN,NaN,NaN, NaN, NaN
20050424,000837,810350,32.906793,-122.166970,4.2,14.867,33.054,40.651,858.27,0.0,3.407,14.080,14.044, NaN,24.501,   NaN,13.63,1011.69,86.41,13.95,49.1,55.9,5.5,4.7,342.2,351.3,5.1,4.4,NaN, NaN,12.3,293.0,278.8,1114301318,1114301318,1,2.2,000518,000518,281.4,32.906713,-122.166823,1.33,NaN,NaN,14.871, NaN,NaN,NaN, NaN, NaN
20050424,000907,810380,32.906756,-122.167255,4.4,14.865,33.054,40.649,857.80,0.0,3.483,14.076,14.042, NaN,24.501,   NaN,13.63,1011.66,86.43,13.94,50.5,56.7,5.6,4.6,341.7,350.5,5.4,4.5,NaN, NaN,12.4,316.8,276.4,1114301348,1114301348,1,1.5,000548,000548,281.1,32.906678,-122.167100,0.85,NaN,NaN,14.869, NaN,NaN,NaN, NaN, NaN
20050424,000937,810410,32.906708,-122.167555,4.3,14.864,33.055,40.649,859.47,0.0,3.483,14.075,14.039, NaN,24.502,   NaN,13.66,1011.65,86.38,13.96,51.4,58.6,5.6,4.7,341.8,351.1,5.4,4.6,NaN, NaN,12.1,277.0,242.8,1114301378,1114301378,1,2.4,000578,000578,283.0,32.906638,-122.167402,0.92,NaN,NaN,14.868, NaN,NaN,NaN, NaN, NaN
20050424,001007,810440,32.906705,-122.167877,4.4,14.862,33.057,40.649,859.96,0.0,3.540,14.074,14.038, NaN,24.504,   NaN,13.65,1011.68,86.32,13.95,50.1,59.2,5.6,4.8,342.4,353.5,5.3,4.7,NaN, NaN,11.9,269.3,269.7,1114301408,1114301408,1,2.3,000608,000608,285.5,32.906621,-122.167728,1.25,NaN,NaN,14.866, NaN,NaN,NaN, NaN, NaN
20050424,001038,810471,32.906668,-122.168193,4.2,14.862,33.054,40.646,864.61,0.0,3.502,14.070,14.037, NaN,24.502,   NaN,13.63,1011.69,86.22,13.94,47.2,55.8,5.6,4.8,342.9,353.3,5.3,4.6,NaN, NaN,11.7,328.6,260.1,1114301438,1114301438,1,1.9,000638,000638,289.5,32.906585,-122.168045,0.95,NaN,NaN,14.866, NaN,NaN,NaN, NaN, NaN
20050424,001107,810500,32.906658,-122.168512,4.3,14.862,33.058,40.650,868.26,0.0,3.464,14.067,14.033, NaN,24.505,   NaN,13.65,1011.70,86.28,13.95,44.5,50.0,5.5,4.5,343.1,350.9,5.2,4.3,NaN, NaN,13.0,252.8,259.2,1114301468,1114301468,1,2.1,000668,000668,290.3,32.906580,-122.168363,1.18,NaN,NaN,14.866, NaN,NaN,NaN, NaN, NaN
20050424,001138,810531,32.906673,-122.168838,4.3,14.860,33.056,40.647,868.94,0.0,3.521,14.065,14.032, NaN,24.504,   NaN,13.68,1011.69,86.34,13.98,44.1,50.3,5.4,4.5,344.3,353.0,5.1,4.2,NaN, NaN,12.4,264.0,288.8,1114301498,1114301498,1,2.3,000698,000698,288.5,32.906590,-122.168688,1.33,NaN,NaN,14.864, NaN,NaN,NaN, NaN, NaN
20050424,001207,810560,32.906696,-122.169152,4.4,14.859,33.055,40.645,871.90,0.0,3.464,14.065,14.030, NaN,24.503,   NaN,13.74,1011.68,86.44,14.03,44.4,51.6,5.4,4.8,343.1,351.8,5.0,4.5,NaN, NaN,12.3,256.2,312.8,1114301528,1114301528,1,2.4,000728,000728,284.8,32.906600,-122.168995,1.15,NaN,NaN,14.863, NaN,NaN,NaN, NaN, NaN
20050424,001237,810590,32.906656,-122.169465,4.4,14.859,33.053,40.642,873.77,0.0,3.483,14.061,14.026, NaN,24.501,   NaN,13.78,1011.74,86.64,14.11,45.3,50.7,5.1,4.6,340.7,347.1,4.7,4.3,NaN, NaN,13.7,295.3,247.0,1114301558,1114301558,1,1.7,000758,000758,281.0,32.906586,-122.169305,0.95,NaN,NaN,14.863, NaN,NaN,NaN, NaN, NaN
20050424,001307,810620,32.906651,-122.169760,4.4,14.851,33.061,40.644,877.38,0.0,3.558,14.058,14.024, NaN,24.510,   NaN,13.84,1011.70,86.91,14.18,46.9,53.4,5.0,4.3,338.9,346.9,4.6,4.1,NaN, NaN,12.1,223.4,260.2,1114301588,1114301588,1,2.0,000788,000788,280.5,32.906583,-122.169602,1.08,NaN,NaN,14.855, NaN,NaN,NaN, NaN, NaN
20050424,001337,810650,32.906620,-122.170083,4.3,14.850,33.061,40.643,878.85,0.0,3.540,14.058,14.025, NaN,24.510,   NaN,13.75,1011.69,86.65,14.15,47.7,54.2,5.4,4.5,338.9,347.6,5.1,4.4,NaN, NaN,12.5,270.7,253.4,1114301618,1114301618,1,1.8,000818,000818,283.0,32.906551,-122.169927,1.12,NaN,NaN,14.854, NaN,NaN,NaN, NaN, NaN
20050424,001407,810680,32.906588,-122.170443,4.3,14.850,33.059,40.640,880.82,0.0,3.540,14.058,14.023, NaN,24.508,   NaN,13.64,1011.77,86.66,14.03,46.4,53.8,6.0,5.0,338.7,348.5,5.6,4.8,NaN, NaN,19.5,259.7,258.9,1114301648,1114301648,1,2.5,000848,000848,286.1,32.906528,-122.170275,1.25,NaN,NaN,14.854, NaN,NaN,NaN, NaN, NaN
20050424,001437,810710,32.906601,-122.170760,4.4,14.845,33.062,40.640,885.01,0.0,3.483,14.057,14.021, NaN,24.512,   NaN,13.67,1011.66,87.00,14.01,41.9,50.2,5.7,5.2,337.9,347.6,5.3,4.9,NaN, NaN,13.5,257.4,260.8,1114301678,1114301678,1,2.2,000878,000878,288.8,32.906520,-122.170613,1.29,NaN,NaN,14.849, NaN,NaN,NaN, NaN, NaN
20050424,001508,810741,32.906615,-122.171092,4.4,14.843,33.063,40.639,887.61,0.0,3.483,14.058,14.022, NaN,24.513,   NaN,13.70,1011.74,87.00,14.00,37.7,43.7,5.8,5.3,335.4,342.7,5.3,4.9,NaN, NaN,12.8,252.1,263.6,1114301708,1114301708,1,1.9,000908,000908,288.0,32.906531,-122.170948,1.06,NaN,NaN,14.847, NaN,NaN,NaN, NaN, NaN
20050424,001537,810770,32.906588,-122.171368,4.3,14.842,33.062,40.637,891.67,0.0,3.558,14.058,14.023, NaN,24.512,   NaN,13.68,1011.71,86.91,14.03,35.1,40.9,6.1,5.3,330.5,338.0,5.6,4.9,NaN, NaN,13.6,238.9,243.9,1114301738,1114301738,1,1.5,000938,000938,284.3,32.906525,-122.171225,0.84,NaN,NaN,14.846, NaN,NaN,NaN, NaN, NaN
20050424,001607,810800,32.906578,-122.171653,4.3,14.840,33.061,40.634,892.71,0.0,3.464,14.057,14.023, NaN,24.512,   NaN,13.68,1011.69,87.00,14.04,40.1,47.4,6.0,5.0,332.4,341.8,5.6,4.7,NaN, NaN,12.6,269.2,267.4,1114301768,1114301768,1,2.2,000968,000968,280.8,32.906511,-122.171507,1.06,NaN,NaN,14.844, NaN,NaN,NaN, NaN, NaN
20050424,001637,810830,32.906580,-122.172075,4.2,14.838,33.063,40.634,894.88,0.0,3.540,14.058,14.024, NaN,24.514,   NaN,13.67,1011.72,86.87,14.00,43.9,52.1,6.2,5.2,335.6,346.1,5.7,4.9,NaN, NaN,12.2,253.5,276.7,1114301798,1114301798,1,2.3,000998,000998,282.9,32.906500,-122.171933,1.93,NaN,NaN,14.842, NaN,NaN,NaN, NaN, NaN
20050424,001707,810860,32.906576,-122.172475,4.2,14.840,33.057,40.630,897.01,0.0,3.502,14.058,14.025, NaN,24.509,   NaN,13.67,1011.73,86.92,13.97,43.6,50.5,6.1,5.3,337.8,347.0,5.5,4.9,NaN, NaN,11.6,295.3,298.2,1114301828,1114301828,1,2.3,001028,001028,286.1,32.906491,-122.172335,1.60,NaN,NaN,14.844, NaN,NaN,NaN, NaN, NaN
20050424,001737,810890,32.906553,-122.172847,4.2,14.838,33.059,40.630,902.92,0.0,3.502,14.057,14.022, NaN,24.511,   NaN,13.72,1011.79,87.04,14.03,42.8,47.0,5.9,5.0,338.8,345.2,5.3,4.6,NaN, NaN,19.2,283.7,265.2,1114301858,1114301858,1,1.9,001058,001058,286.0,32.906483,-122.172703,1.41,NaN,NaN,14.842, NaN,NaN,NaN, NaN, NaN
20050424,001807,810920,32.906555,-122.173237,4.2,14.839,33.059,40.631,907.25,0.0,3.577,14.058,14.025, NaN,24.510,   NaN,13.69,1011.74,86.77,14.05,41.2,45.7,6.2,5.2,336.3,343.2,5.6,4.8,NaN, NaN,18.6,254.3,270.0,1114301888,1114301888,1,2.3,001088,001088,283.6,32.906493,-122.173088,1.68,NaN,NaN,14.843, NaN,NaN,NaN, NaN, NaN
20050424,001837,810950,32.906573,-122.173662,4.2,14.839,33.058,40.630,911.24,0.0,3.691,14.058,14.022, NaN,24.509,   NaN,13.69,1011.73,86.89,14.02,40.5,47.2,6.6,5.6,334.7,343.8,5.9,5.1,NaN, NaN,19.0,245.7,276.0,1114301918,1114301918,1,2.6,001118,001118,284.5,32.906500,-122.173517,1.92,NaN,NaN,14.843, NaN,NaN,NaN, NaN, NaN
20050424,001907,810980,32.906595,-122.174112,4.3,14.841,33.053,40.625,910.67,0.0,3.691,14.056,14.020, NaN,24.505,   NaN,13.69,1011.73,86.79,14.03,40.6,46.6,6.7,5.9,335.6,343.4,6.0,5.3,NaN, NaN,18.3,257.5,295.3,1114301948,1114301948,1,2.6,001148,001148,286.0,32.906523,-122.173973,2.06,NaN,NaN,14.845, NaN,NaN,NaN, NaN, NaN
20050424,001937,811010,32.906596,-122.174590,4.4,14.847,33.048,40.625,912.01,0.0,3.672,14.053,14.016, NaN,24.500,   NaN,13.68,1011.67,86.67,14.00,40.9,47.4,6.7,6.1,337.2,345.4,6.0,5.6,NaN, NaN,18.9,300.8,275.9,1114301978,1114301978,1,3.0,001178,001178,284.8,32.906531,-122.174442,2.24,NaN,NaN,14.851, NaN,NaN,NaN, NaN, NaN
20050424,002007,811040,32.906625,-122.175070,4.3,14.842,33.053,40.627,910.40,0.0,3.709,14.050,14.013, NaN,24.505,   NaN,13.70,1011.64,86.70,14.00,42.0,50.1,6.7,5.9,338.4,349.1,5.9,5.4,NaN, NaN,18.7,259.2,274.4,1114302008,1114302008,1,3.1,001208,001208,284.8,32.906556,-122.174923,2.19,NaN,NaN,14.846, NaN,NaN,NaN, NaN, NaN
20050424,002037,811070,32.906660,-122.175558,4.3,14.843,33.051,40.625,911.59,0.0,3.747,14.042,14.008, NaN,24.503,   NaN,13.71,1011.72,86.69,14.03,41.8,51.0,6.7,6.0,337.2,348.9,5.9,5.5,NaN, NaN,18.4,260.2,287.9,1114302038,1114302038,1,2.9,001238,001238,281.3,32.906588,-122.175410,2.19,NaN,NaN,14.847, NaN,NaN,NaN, NaN, NaN
20050424,002108,811101,32.906648,-122.176052,4.2,14.841,33.055,40.627,912.02,0.0,3.879,14.036,14.002, NaN,24.507,   NaN,13.73,1011.77,86.68,14.03,42.4,48.9,6.7,5.9,332.7,341.6,5.8,5.2,NaN, NaN,18.0,251.9,264.6,1114302068,1114302068,1,2.8,001268,001268,264.4,32.906615,-122.175897,2.22,NaN,NaN,14.845, NaN,NaN,NaN, NaN, NaN
20050424,002137,811130,32.906561,-122.176543,4.3,14.836,33.059,40.627,914.23,0.0,3.879,14.027,13.994, NaN,24.511,   NaN,13.76,1011.68,86.71,14.08,54.3,57.1,6.2,4.7,331.0,341.9,5.5,4.1,NaN, NaN,18.3,225.3,258.6,1114302098,1114302098,1,3.1,001298,001298,239.1,32.906586,-122.176395,2.35,NaN,NaN,14.840, NaN,NaN,NaN, NaN, NaN
20050424,002208,811161,32.906410,-122.176908,4.4,14.839,33.056,40.627,921.71,0.0,3.936,14.020,13.986, NaN,24.509,   NaN,13.67,1011.70,86.35,14.01,76.2,79.3,5.6,3.0,332.8,352.3,5.2,2.9,NaN, NaN,17.9,244.6,248.7,1114302128,1114302128,1,2.3,001328,001328,221.1,32.906470,-122.176780,1.69,NaN,NaN,14.843, NaN,NaN,NaN, NaN, NaN
20050424,002237,811190,32.906226,-122.177202,4.4,14.832,33.063,40.628,922.78,0.0,4.030,14.015,13.980, NaN,24.516,   NaN,13.73,1011.75,86.63,14.01,96.5,99.3,5.3,3.2,333.5,347.4,5.2,3.3,NaN, NaN,19.0,251.3,233.8,1114302158,1114302158,1,2.2,001358,001358,213.6,32.906310,-122.177083,1.74,NaN,NaN,14.836, NaN,NaN,NaN, NaN, NaN
20050424,002307,811220,32.905946,-122.177555,4.3,14.829,33.063,40.625,919.49,0.0,4.068,14.011,13.977, NaN,24.516,   NaN,13.80,1011.72,86.58,14.05,102.0,104.0,4.9,3.5,336.9,346.7,5.1,3.8,NaN, NaN,18.1,213.4,210.4,1114302188,1114302188,1,3.4,001388,001388,233.4,32.905993,-122.177412,2.82,NaN,NaN,14.833, NaN,NaN,NaN, NaN, NaN
20050424,002337,811250,32.905675,-122.178137,4.4,14.825,33.065,40.624,941.07,0.0,4.087,14.005,13.970, NaN,24.518,   NaN,13.80,1011.74,86.24,14.04,90.4,111.3,4.7,2.4,341.5,12.5,4.8,3.3,NaN, NaN,18.4,259.4,249.9,1114302218,1114302218,1,4.4,001418,001418,237.6,32.905685,-122.177982,3.63,NaN,NaN,14.829, NaN,NaN,NaN, NaN, NaN
20050424,002407,811280,32.905333,-122.178815,4.2,14.814,33.072,40.622,980.82,0.0,4.068,13.998,13.962, NaN,24.526,   NaN,13.81,1011.71,86.36,14.06,77.3,102.3,4.9,2.5,341.8,18.3,4.9,3.6,NaN, NaN,18.2,222.2,234.8,1114302248,1114302248,1,5.2,001448,001448,237.5,32.905365,-122.178663,4.26,NaN,NaN,14.818, NaN,NaN,NaN, NaN, NaN
20050424,002437,811310,32.904986,-122.179558,4.3,14.809,33.077,40.622,992.31,0.0,4.087,13.986,13.952, NaN,24.531,   NaN,13.82,1011.77,86.36,14.11,72.2,74.8,5.1,2.9,339.6,5.6,4.8,3.2,NaN, NaN,19.4,257.5,244.3,1114302278,1114302278,1,5.1,001478,001478,237.0,32.905013,-122.179407,4.57,NaN,NaN,14.813, NaN,NaN,NaN, NaN, NaN
20050424,002507,811340,32.904595,-122.180323,4.3,14.799,33.080,40.617,989.20,0.0,4.011,13.974,13.937, NaN,24.536,   NaN,13.77,1011.76,86.28,14.10,66.9,67.9,5.2,2.7,335.0,5.7,4.7,2.9,NaN, NaN,18.7,228.7,236.3,1114302308,1114302308,1,5.8,001508,001508,236.1,32.904626,-122.180185,4.86,NaN,NaN,14.803, NaN,NaN,NaN, NaN, NaN
20050424,002538,811371,32.904070,-122.181392,4.5,14.797,33.079,40.614,1014.75,0.0,4.200,13.962,13.923, NaN,24.535,   NaN,13.74,1011.69,86.35,14.09,60.1,64.5,5.6,3.5,332.8,0.2,4.7,3.5,NaN, NaN,18.5,232.5,235.4,1114302338,1114302338,1,8.7,001538,001538,237.3,32.904101,-122.181248,7.26,NaN,NaN,14.801, NaN,NaN,NaN, NaN, NaN
20050424,002607,811400,32.903435,-122.182673,4.4,14.791,33.081,40.610,1075.24,0.0,4.351,13.953,13.917, NaN,24.538,   NaN,13.76,1011.65,86.48,14.13,54.9,61.4,6.3,4.6,333.5,355.7,4.9,4.3,NaN, NaN,18.4,235.8,240.1,1114302368,1114302368,1,9.3,001568,001568,236.8,32.903458,-122.182538,8.64,NaN,NaN,14.795, NaN,NaN,NaN, NaN, NaN
20050424,002637,811430,32.902761,-122.184050,4.3,14.783,33.081,40.603,1154.01,0.0,4.540,13.942,13.907, NaN,24.540,   NaN,13.73,1011.65,86.39,14.08,52.5,59.2,6.7,5.4,335.0,351.8,5.1,4.8,NaN, NaN,20.1,256.3,246.4,1114302398,1114302398,1,9.6,001598,001598,236.5,32.902778,-122.183907,8.97,NaN,NaN,14.787, NaN,NaN,NaN, NaN, NaN
20050424,002707,811460,32.902018,-122.185523,4.5,14.778,33.082,40.598,1226.13,0.0,4.653,13.930,13.894, NaN,24.541,   NaN,13.72,1011.64,86.34,14.09,52.1,60.2,7.0,5.5,336.5,355.5,5.3,5.1,NaN, NaN,18.5,243.6,243.2,1114302428,1114302428,1,10.8,001628,001628,236.3,32.902051,-122.185380,9.95,NaN,NaN,14.782, NaN,NaN,NaN, NaN, NaN
20050424,002737,811490,32.901228,-122.187107,4.4,14.763,33.090,40.593,1643.79,0.0,4.672,13.916,13.881, NaN,24.551,   NaN,13.77,1011.69,86.44,14.13,51.3,59.7,7.0,5.6,339.5,357.6,5.3,5.3,NaN, NaN,19.5,237.9,235.9,1114302458,1114302458,1,11.2,001658,001658,236.8,32.901251,-122.186970,10.56,NaN,NaN,14.767, NaN,NaN,NaN, NaN, NaN
20050424,002807,811520,32.900420,-122.188743,4.5,14.756,33.090,40.587,1918.19,0.0,4.691,13.906,13.867, NaN,24.553,   NaN,13.83,1011.61,86.21,14.22,47.9,56.1,7.0,6.1,339.7,353.8,5.1,5.4,NaN, NaN,17.9,235.0,239.9,1114302488,1114302488,1,11.4,001688,001688,236.7,32.900453,-122.188600,10.84,NaN,NaN,14.760, NaN,NaN,NaN, NaN, NaN
20050424,002837,811550,32.899625,-122.190370,4.4,14.744,33.094,40.580,1521.99,0.0,5.163,13.896,13.861, NaN,24.558,   NaN,13.79,1011.67,86.21,14.17,44.7,52.8,7.4,6.4,334.2,351.0,5.0,5.2,NaN, NaN,17.6,240.2,238.5,1114302518,1114302518,1,11.5,001718,001718,237.0,32.899655,-122.190233,10.83,NaN,NaN,14.748, NaN,NaN,NaN, NaN, NaN
20050424,002907,811580,32.898823,-122.192013,4.5,14.724,33.105,40.574,1392.80,0.0,5.087,13.887,13.853, NaN,24.571,   NaN,13.78,1011.65,86.36,14.15,46.8,52.0,7.7,6.3,333.1,350.5,5.4,5.1,NaN, NaN,19.2,234.5,240.8,1114302548,1114302548,1,11.4,001748,001748,237.1,32.898865,-122.191877,10.85,NaN,NaN,14.728, NaN,NaN,NaN, NaN, NaN
20050424,002937,811610,32.898023,-122.193635,4.5,14.720,33.101,40.565,1553.67,0.0,5.087,13.874,13.837, NaN,24.569,   NaN,13.76,1011.57,86.37,14.13,47.5,51.7,7.7,6.5,334.3,349.2,5.5,5.2,NaN, NaN,18.3,242.7,239.9,1114302578,1114302578,1,11.5,001778,001778,237.0,32.898060,-122.193495,10.85,NaN,NaN,14.724, NaN,NaN,NaN, NaN, NaN
20050424,003007,811640,32.897221,-122.195263,4.5,14.704,33.104,40.554,1781.18,0.0,4.653,13.855,13.818, NaN,24.574,   NaN,13.74,1011.61,86.13,14.13,47.7,52.9,7.6,6.5,335.1,349.4,5.4,5.3,NaN, NaN,18.4,236.3,239.2,1114302608,1114302608,1,11.4,001808,001808,236.8,32.897256,-122.195123,10.63,NaN,NaN,14.708, NaN,NaN,NaN, NaN, NaN
20050424,003037,811670,32.896431,-122.196898,4.5,14.686,33.113,40.547,2413.16,0.0,4.483,13.834,13.798, NaN,24.585,   NaN,13.79,1011.60,85.98,14.18,47.6,54.9,7.5,6.5,336.3,350.3,5.3,5.5,NaN, NaN,17.8,240.4,241.1,1114302638,1114302638,1,11.3,001838,001838,236.6,32.896466,-122.196760,10.73,NaN,NaN,14.690, NaN,NaN,NaN, NaN, NaN
20050424,003107,811700,32.895618,-122.198532,4.5,14.684,33.105,40.536,2011.72,0.0,4.370,13.815,13.779, NaN,24.580,   NaN,13.84,1011.66,85.95,14.23,49.6,55.3,7.2,6.2,340.7,353.7,5.4,5.4,NaN, NaN,17.9,237.4,239.6,1114302668,1114302668,1,11.4,001868,001868,237.1,32.895658,-122.198398,10.82,NaN,NaN,14.688, NaN,NaN,NaN, NaN, NaN
20050424,003137,811730,32.894796,-122.200162,4.5,14.666,33.112,40.527,2123.76,0.0,4.521,13.802,13.767, NaN,24.588,   NaN,13.89,1011.63,85.96,14.29,49.6,54.1,6.9,6.0,342.6,354.4,5.2,5.2,NaN, NaN,17.6,241.7,237.2,1114302698,1114302698,1,11.6,001898,001898,236.7,32.894845,-122.200030,10.81,NaN,NaN,14.670, NaN,NaN,NaN, NaN, NaN
20050424,003207,811760,32.894000,-122.201808,4.5,14.652,33.118,40.521,2055.19,0.0,4.804,13.787,13.750, NaN,24.596,   NaN,13.86,1011.66,85.89,14.29,48.5,54.0,6.9,6.0,342.6,355.1,5.1,5.2,NaN, NaN,18.3,234.8,239.5,1114302728,1114302728,1,11.4,001928,001928,236.3,32.894035,-122.201672,10.73,NaN,NaN,14.656, NaN,NaN,NaN, NaN, NaN
20050424,003238,811791,32.893201,-122.203443,4.5,14.645,33.111,40.506,2268.69,0.0,4.710,13.769,13.733, NaN,24.592,   NaN,13.90,1011.60,85.94,14.32,47.8,53.6,6.9,6.0,341.6,354.9,5.0,5.2,NaN, NaN,19.2,232.8,222.6,1114302758,1114302758,1,31.7,001958,001958,237.0,32.893053,-122.203433,10.85,NaN,NaN,14.649, NaN,NaN,NaN, NaN, NaN
20050424,003307,811821,32.892411,-122.205085,4.5,14.620,33.123,40.497,2283.29,0.0,4.521,13.756,13.717, NaN,24.607,   NaN,13.86,1011.63,85.74,14.30,48.7,53.7,6.9,6.1,342.7,354.6,5.1,5.2,NaN, NaN,18.4,249.9,245.1,1114302788,1114302788,1,11.5,001988,001988,237.0,32.892395,-122.204967,10.86,NaN,NaN,14.624, NaN,NaN,NaN, NaN, NaN
20050424,003337,811850,32.891601,-122.206700,4.4,14.612,33.120,40.485,2033.57,0.0,4.389,13.743,13.703, NaN,24.606,   NaN,13.88,1011.61,85.83,14.31,49.4,53.2,6.9,5.9,343.0,356.3,5.1,5.0,NaN, NaN,17.6,242.9,240.0,1114302818,1114302818,1,11.2,002018,002018,236.6,32.891611,-122.206568,10.80,NaN,NaN,14.616, NaN,NaN,NaN, NaN, NaN
20050424,003407,811880,32.890813,-122.208332,4.4,14.582,33.132,40.471,1604.72,0.0,4.521,13.727,13.690, NaN,24.622,   NaN,13.84,1011.64,85.92,14.27,49.0,52.1,6.8,5.6,343.4,358.3,5.0,4.8,NaN, NaN,17.6,233.4,238.5,1114302848,1114302848,1,11.4,002048,002048,237.1,32.890828,-122.208193,10.64,NaN,NaN,14.585, NaN,NaN,NaN, NaN, NaN
20050424,003438,811911,32.890008,-122.209957,4.5,14.578,33.123,40.457,1567.88,0.0,4.597,13.711,13.675, NaN,24.616,   NaN,13.85,1011.62,86.13,14.28,49.9,53.4,6.6,5.6,345.8,358.8,5.1,5.0,NaN, NaN,18.0,247.8,239.1,1114302878,1114302878,1,11.2,002078,002078,237.1,32.890030,-122.209815,10.72,NaN,NaN,14.581, NaN,NaN,NaN, NaN, NaN
20050424,003508,811941,32.889211,-122.211583,4.4,14.554,33.132,40.444,1426.09,0.0,4.615,13.697,13.662, NaN,24.628,   NaN,13.80,1011.59,86.00,14.25,48.7,54.4,6.6,5.8,345.1,356.7,5.0,5.1,NaN, NaN,18.1,237.4,240.7,1114302908,1114302908,1,11.6,002108,002108,237.5,32.889231,-122.211442,10.90,NaN,NaN,14.557, NaN,NaN,NaN, NaN, NaN
20050424,003538,811971,32.888408,-122.213202,4.4,14.535,33.135,40.430,1258.91,0.0,4.540,13.687,13.648, NaN,24.634,   NaN,13.78,1011.60,86.15,14.22,48.3,55.2,6.5,5.8,345.6,357.6,4.9,5.2,NaN, NaN,18.7,234.4,239.9,1114302938,1114302938,1,11.6,002138,002138,237.5,32.888425,-122.213060,10.76,NaN,NaN,14.538, NaN,NaN,NaN, NaN, NaN
20050424,003608,812001,32.887610,-122.214815,4.3,14.521,33.135,40.416,992.43,0.0,4.540,13.680,13.642, NaN,24.637,   NaN,13.78,1011.68,86.35,14.21,49.5,56.0,6.6,5.7,345.9,358.1,5.0,5.2,NaN, NaN,18.4,237.1,239.2,1114302968,1114302968,1,11.6,002168,002168,237.6,32.887630,-122.214670,10.50,NaN,NaN,14.524, NaN,NaN,NaN, NaN, NaN